Location: Taaricht
(32.5378°N, 5.4251°W)
Time: 20:02:40
(UTC+00:00)

APEX - Pass Details

Date: 09 April 2020
Orbit: 331 x 1113 km, 69.9° (Epoch: 27 May)

Event Time Altitude Azimuth Distance (km) Brightness Sun altitude
Rises 20:16:37 0° 339° (NNW) 3,638 8.2 -18.8°
Reaches altitude 10° 20:19:25 10° 340° (NNW) 2,576 7.3 -19.3°
Maximum altitude 20:25:21 82° 67° (ENE) 769 3.9 -20.5°
Enters shadow 20:27:09 41° 152° (SSE) 1,035 4.3 -20.8°
